C/2017 F1 ( Lemmon )

Japanese version
Home page
Updated on February 13, 2018

---------------------------------------------------------------------

* Profile

Discovery Date March 20, 2017
Magnitude 21.7 mag
Discoverer G. J. Leonard (Mount Lemmon)

* Pictures

* Orbital Elements

Epoch 2017 Nov. 23.0 TT = JDT 2458080.5
T 2017 Nov. 30.99345 TT                                 MPCW
q   4.4997837            (2000.0)            P               Q
z  -0.0009748      Peri.   64.81645     -0.12303204     +0.97199766
 +/-0.0000068      Node   158.74261     +0.58787276     -0.09115363
e   1.0043865      Incl.  146.48110     +0.79954283     +0.21659077
From 76 observations 2017 Mar. 20-2018 Jan. 20, mean residual 0".5.

* Magnitudes Graph

        m1 = 10.5 + 5 log d + 10.0 log r

---------------------------------------------------------------------

The orbital elements are published on M.P.E.C. 2018-B155.
The magnitudes graphs are made with Comet for Windows.

---------------------------------------------------------------------

Copyright(C) Seiichi Yoshida (comet@aerith.net). All rights reserved.